When you browse on this site, cookies collect data to enhance your experience and personalize the content and advertising you see.
Visit our Privacy Policy to learn more. By continuing to use the site, you agree to this use of cookies and data.
  • In United Kingdom
  • List of Countries
  • For 7 days
  • Water Temperature
  • Satellite Maps
  • Weather Map
  • Weather Widgets
  • user-avatar
    Login

    Hourly Weather Al-Jahra

    Today, 23 February, Saturday

    Time Temperature Precipitation Wind Pressure Humidity
    00:00 +16°C° 0 mm 3 mps 757 mmHg 62%
    01:00 +16°C° 0 mm 3 mps 757 mmHg 64%
    02:00 +15°C° 0 mm 4 mps 756 mmHg 66%
    03:00 +14°C° 0 mm 3 mps 756 mmHg 69%
    04:00 +14°C° 0 mm 3 mps 757 mmHg 70%
    05:00 +14°C° 0 mm 4 mps 757 mmHg 71%
    06:00 +14°C° 0 mm 4 mps 757 mmHg 72%
    07:00 +15°C° 0 mm 5 mps 757 mmHg 66%
    08:00 +16°C° 0 mm 6 mps 757 mmHg 60%
    09:00 +18°C° 0 mm 7 mps 757 mmHg 54%
    10:00 +20°C° 0 mm 7 mps 757 mmHg 50%
    11:00 +21°C° 0 mm 7 mps 757 mmHg 45%
    12:00 +22°C° 0 mm 7 mps 757 mmHg 40%
    13:00 +22°C° 0 mm 7 mps 756 mmHg 39%
    14:00 +22°C° 0 mm 7 mps 756 mmHg 39%
    15:00 +23°C° 0 mm 6 mps 755 mmHg 38%
    16:00 +22°C° 0 mm 6 mps 755 mmHg 44%
    17:00 +21°C° 0 mm 6 mps 755 mmHg 49%
    18:00 +20°C° 0 mm 5 mps 755 mmHg 54%
    19:00 +19°C° 0 mm 5 mps 755 mmHg 60%
    20:00 +19°C° 0 mm 4 mps 755 mmHg 66%
    21:00 +18°C° 0 mm 3 mps 756 mmHg 72%
    22:00 +18°C° 0 mm 3 mps 756 mmHg 75%
    23:00 +17°C° 0 mm 2 mps 756 mmHg 78%

    Tomorrow, 24 February, Sunday

    Time Temperature Precipitation Wind Pressure Humidity
    00:00 +17°C° 0 mm 2 mps 756 mmHg 81%
    01:00 +17°C° 0 mm 2 mps 755 mmHg 81%
    02:00 +16°C° 0 mm 1 mps 755 mmHg 82%
    03:00 +16°C° 0 mm 1 mps 755 mmHg 83%
    04:00 +16°C° 0 mm 1 mps 755 mmHg 84%
    05:00 +14°C° 0 mm 0 mps 756 mmHg 85%
    06:00 +14°C° 0 mm 0 mps 756 mmHg 86%
    07:00 +15°C° 0 mm 0 mps 756 mmHg 79%
    08:00 +16°C° 0 mm 0 mps 757 mmHg 72%
    09:00 +19°C° 0 mm 1 mps 757 mmHg 65%
    10:00 +21°C° 0 mm 1 mps 757 mmHg 59%
    11:00 +20°C° 0 mm 0 mps 757 mmHg 52%
    12:00 +21°C° 0 mm 0 mps 757 mmHg 45%
    13:00 +24°C° 0 mm 1 mps 757 mmHg 40%
    14:00 +25°C° 0 mm 1 mps 756 mmHg 34%
    15:00 +26°C° 0 mm 2 mps 756 mmHg 29%
    16:00 +25°C° 0 mm 2 mps 756 mmHg 27%
    17:00 +25°C° 0 mm 3 mps 756 mmHg 26%
    18:00 +24°C° 0 mm 3 mps 756 mmHg 24%
    19:00 +24°C° 0 mm 3 mps 757 mmHg 25%
    20:00 +22°C° 0 mm 4 mps 757 mmHg 27%
    21:00 +21°C° 0 mm 4 mps 758 mmHg 28%
    22:00 +21°C° 0 mm 4 mps 758 mmHg 30%
    23:00 +20°C° 0 mm 4 mps 758 mmHg 31%

    Day after tomorrow, 25 February, Monday

    Time Temperature Precipitation Wind Pressure Humidity
    00:00 +20°C° 0 mm 5 mps 758 mmHg 33%
    01:00 +19°C° 0 mm 5 mps 758 mmHg 35%
    02:00 +19°C° 0 mm 5 mps 758 mmHg 38%
    03:00 +17°C° 0 mm 5 mps 758 mmHg 40%
    04:00 +17°C° 0 mm 5 mps 759 mmHg 42%
    05:00 +16°C° 0 mm 5 mps 759 mmHg 43%
    06:00 +17°C° 0 mm 4 mps 759 mmHg 44%
    07:00 +17°C° 0 mm 5 mps 759 mmHg 40%
    08:00 +19°C° 0 mm 5 mps 760 mmHg 36%
    09:00 +19°C° 0 mm 5 mps 760 mmHg 33%
    10:00 +21°C° 0 mm 5 mps 760 mmHg 29%
    11:00 +22°C° 0 mm 5 mps 760 mmHg 25%
    12:00 +23°C° 0 mm 6 mps 760 mmHg 22%
    13:00 +24°C° 0 mm 6 mps 759 mmHg 20%
    14:00 +24°C° 0 mm 6 mps 759 mmHg 18%
    15:00 +24°C° 0 mm 6 mps 758 mmHg 16%
    16:00 +25°C° 0 mm 5 mps 758 mmHg 16%
    17:00 +23°C° 0 mm 4 mps 758 mmHg 17%
    18:00 +22°C° 0 mm 3 mps 758 mmHg 18%
    19:00 +22°C° 0 mm 3 mps 758 mmHg 19%
    20:00 +21°C° 0 mm 3 mps 758 mmHg 20%
    21:00 +20°C° 0 mm 3 mps 759 mmHg 21%
    22:00 +20°C° 0 mm 3 mps 758 mmHg 21%
    23:00 +19°C° 0 mm 3 mps 758 mmHg 22%

    26 February, Tuesday

    Time Temperature Precipitation Wind Pressure Humidity
    00:00 +19°C° 0 mm 2 mps 758 mmHg 22%
    01:00 +18°C° 0 mm 2 mps 758 mmHg 23%
    02:00 +18°C° 0 mm 2 mps 758 mmHg 24%
    03:00 +17°C° 0 mm 2 mps 757 mmHg 24%
    04:00 +17°C° 0 mm 2 mps 757 mmHg 25%
    05:00 +17°C° 0 mm 2 mps 757 mmHg 26%
    06:00 +16°C° 0 mm 1 mps 757 mmHg 27%
    07:00 +17°C° 0 mm 2 mps 757 mmHg 26%
    08:00 +19°C° 0 mm 2 mps 757 mmHg 24%
    09:00 +20°C° 0 mm 3 mps 757 mmHg 23%
    10:00 +21°C° 0 mm 3 mps 757 mmHg 21%
    11:00 +22°C° 0 mm 3 mps 756 mmHg 20%
    12:00 +25°C° 0 mm 4 mps 755 mmHg 18%
    13:00 +25°C° 0 mm 4 mps 755 mmHg 19%
    14:00 +25°C° 0 mm 5 mps 754 mmHg 20%
    15:00 +24°C° 0 mm 6 mps 753 mmHg 21%
    16:00 +23°C° 0.1 mm 6 mps 752 mmHg 24%
    17:00 +23°C° 0.1 mm 7 mps 751 mmHg 27%
    18:00 +22°C° 0.1 mm 7 mps 751 mmHg 30%
    19:00 +21°C° 0.1 mm 8 mps 750 mmHg 32%
    20:00 +21°C° 0.1 mm 8 mps 750 mmHg 34%
    21:00 +19°C° 0.1 mm 9 mps 750 mmHg 36%
    22:00 +19°C° 0 mm 9 mps 749 mmHg 38%
    23:00 +19°C° 0 mm 9 mps 748 mmHg 39%

    27 February, Wednesday

    Time Temperature Precipitation Wind Pressure Humidity
    00:00 +19°C° 0 mm 9 mps 748 mmHg 41%
    01:00 +20°C° 0 mm 8 mps 747 mmHg 41%
    02:00 +20°C° 0 mm 7 mps 746 mmHg 42%
    03:00 +20°C° 0 mm 6 mps 746 mmHg 42%
    04:00 +21°C° 0 mm 6 mps 746 mmHg 42%
    05:00 +21°C° 0 mm 6 mps 747 mmHg 43%
    06:00 +22°C° 0 mm 7 mps 747 mmHg 43%
    07:00 +22°C° 0 mm 7 mps 748 mmHg 37%
    08:00 +22°C° 0 mm 8 mps 749 mmHg 31%
    09:00 +22°C° 0 mm 9 mps 749 mmHg 24%
    10:00 +23°C° 0 mm 9 mps 750 mmHg 20%
    11:00 +24°C° 0 mm 8 mps 750 mmHg 16%
    12:00 +24°C° 0 mm 7 mps 750 mmHg 12%
    13:00 +24°C° 0 mm 7 mps 750 mmHg 13%
    14:00 +26°C° 0 mm 6 mps 749 mmHg 13%
    15:00 +26°C° 0 mm 5 mps 749 mmHg 13%
    16:00 +25°C° 0 mm 4 mps 749 mmHg 15%
    17:00 +25°C° 0 mm 3 mps 750 mmHg 17%
    18:00 +24°C° 0 mm 3 mps 750 mmHg 19%
    19:00 +23°C° 0 mm 2 mps 751 mmHg 20%
    20:00 +23°C° 0 mm 1 mps 751 mmHg 21%
    21:00 +22°C° 0 mm 1 mps 751 mmHg 23%
    22:00 +22°C° 0 mm 1 mps 751 mmHg 22%
    23:00 +22°C° 0 mm 1 mps 751 mmHg 22%

    28 February, Thursday

    Time Temperature Precipitation Wind Pressure Humidity
    00:00 +21°C° 0 mm 1 mps 751 mmHg 21%
    01:00 +21°C° 0 mm 1 mps 751 mmHg 23%
    02:00 +19°C° 0 mm 2 mps 751 mmHg 24%
    03:00 +19°C° 0 mm 2 mps 750 mmHg 25%
    04:00 +19°C° 0 mm 1 mps 751 mmHg 27%
    05:00 +19°C° 0 mm 1 mps 751 mmHg 30%
    06:00 +18°C° 0 mm 1 mps 751 mmHg 32%
    07:00 +19°C° 0 mm 1 mps 751 mmHg 31%
    08:00 +21°C° 0 mm 1 mps 752 mmHg 29%
    09:00 +22°C° 0 mm 1 mps 752 mmHg 28%
    10:00 +23°C° 0 mm 1 mps 752 mmHg 27%
    11:00 +24°C° 0 mm 1 mps 752 mmHg 26%
    12:00 +25°C° 0 mm 1 mps 751 mmHg 25%
    13:00 +25°C° 0 mm 1 mps 751 mmHg 24%
    14:00 +25°C° 0 mm 2 mps 750 mmHg 23%
    15:00 +25°C° 0 mm 2 mps 750 mmHg 22%
    16:00 +25°C° 0 mm 2 mps 750 mmHg 24%
    17:00 +24°C° 0 mm 2 mps 750 mmHg 25%
    18:00 +24°C° 0 mm 2 mps 750 mmHg 27%
    19:00 +23°C° 0 mm 2 mps 751 mmHg 28%
    20:00 +23°C° 0 mm 2 mps 751 mmHg 29%
    21:00 +21°C° 0 mm 2 mps 751 mmHg 31%
    22:00 +20°C° 0 mm 3 mps 751 mmHg 30%
    23:00 +20°C° 0 mm 3 mps 750 mmHg 30%
    Show more